Location: Unspecified
(0.0000°N, 0.0000°E)
Time: 12:59:07
(UTC+00:00)

CBERS-1 - Pass Details

Date: 16 June 2023
Orbit: 768 x 776 km, 98.8° (Epoch: 03 October)

Event Time Altitude Azimuth Distance (km) Brightness Sun altitude
Rises 03:59:13 0° 350° (N) 3,239 7.4 -27.6°
Reaches altitude 10° 04:01:51 10° 338° (NNW) 2,315 6.5 -27.1°
Enters shadow 04:02:57 15° 329° (NNW) 1,983 6.1 -26.8°
